Regional Weather Roundup
Issued by NWS Charleston, SC

Current Version | Previous Version | Graphics & Text | Print | Product List | Glossary On
Versions: 1 2 3 4 5 6 7 8 9 10 11 12 13 14 15 16 17 18 19 20 21 22 23 24 25 26 27 28 29 30 31 32 33 34 35 36 37 38 39 40 41 42 43 44 45 46 47 48 49 50
000 ASUS42 KCHS 281112 RWRCHS REGIONAL WEATHER ROUNDUP NATIONAL WEATHER SERVICE CHARLESTON SC 700 AM EDT TUE JUL 28 2015 NOTE: "FAIR" INDICATES FEW OR NO CLOUDS BELOW 12,000 FEET WITH NO SIGNIFICANT WEATHER AND/OR OBSTRUCTIONS TO VISIBILITY. NOT ALL STATIONS ARE QUALITY CONTROLLED BY THE NATIONAL WEATHER SERVICE. USE DATA WITH CAUTION...ESPECIALLY DEWPOINT OBSERVATIONS. SCZ027-030-031-034>040-042>050-281200- ...SOUTHEAST SOUTH CAROLINA... CITY SKY/WX TMP DP RH WIND PRES REMARKS N CHARLESTON PTCLDY 76 74 93 NE6 29.96R WATERFRONT PRK N/A 79 77 94 NE7 29.92R MOUNT PLEASANT FAIR 75 75 100 N3 29.96R JOHNS ISLAND FAIR 77 77 100 CALM 29.95S PINOPOLIS NOT AVBL MONCKS CORNER FAIR 77 73 88 CALM 29.97R SUMMERVILLE FAIR 73 73 100 CALM 29.97S BEAUFORT MCAS MOCLDY 78 76 93 N6 29.96R BEAUFORT ARPT PTSUNNY 79 79 100 CALM 29.96R HILTON HEAD IS PTCLDY 81 79 94 N7 29.96R WALTERBORO PTSUNNY 77 73 88 CALM 29.98R ALLENDALE FAIR 75 73 94 CALM 29.97R ...SOUTHERN MIDLANDS AND PEE DEE... CITY SKY/WX TMP DP RH WIND PRES REMARKS GEORGETOWN NOT AVBL KINGSTREE NOT AVBL ORANGEBURG PTCLDY 76 73 91 CALM 29.99R BARNWELL PTSUNNY 75 73 94 CALM 29.99R AIKEN FAIR 72 70 94 CALM 30.02R MANNING FAIR 73 73 100 CALM 29.99R FOG COLUMBIA MOCLDY 79 73 82 E3 29.98R SUMTER CLOUDY 77 74 90 E5 29.97R FLORENCE CLEAR 75 72 90 NE3 29.98R MYRTLE BEACH PTCLDY 75 70 83 NE7 29.99R N MYRTLE BEACH CLEAR 73 71 93 N3 29.98R $$ GAZ063-065-086>088-099>101-113>116-118-119-134>141-150-281200- ...SOUTHEAST GEORGIA... CITY SKY/WX TMP DP RH WIND PRES REMARKS SAVANNAH ARPT FOG 76 75 97 CALM 29.96R VSB 1/4 HUNTER AAF FOG 77 77 100 NE1 29.94R VSB 1/4 FORT STEWART FOG 75 74 95 N3 29.94R VSB 1/4 STATESBORO CLOUDY 75 32 20 CALM 29.97R SYLVANIA CLOUDY 76 76 100 CALM 29.99R FOG CLAXTON FOG 73 73 100 CALM 29.97R VSB 1/4 ...CSRA...CENTRAL AND FAR SOUTHEAST GEORGIA... CITY SKY/WX TMP DP RH WIND PRES REMARKS THOMSON CLEAR 76 76 98 CALM 30.03R AUGUSTA-BUSH CLEAR 72 71 97 SE3 29.96R AUGUSTA-DANIEL CLEAR 77 73 87 CALM 29.98R SWAINSBORO FAIR N/A N/A N/A CALM 29.98R VIDALIA CLOUDY 73 73 100 CALM 29.98R EASTMAN N/A 71 71 100 CALM 29.99R FOG HAZLEHURST FAIR 76 76 100 CALM 29.97R ALMA FOG 76 75 97 CALM 29.96R VSB<1/4 WAYCROSS FOG 78 78 100 CALM 29.96R VSB<1/4 JESUP FOG 79 77 94 CALM 29.96R VSB 1/4 BAXLEY FOG 77 75 94 CALM 29.96R VSB<1/4 BRUNSWICK N/A 72 72 100 CALM 29.96R VSB 1/4 SAINT SIMONS CLEAR 77 76 96 CALM 29.94R $$ SCZ027-028-034-036>038-045-046-048>050-GAZ119-141-281200- ...LAKE AND SUPPLEMENTAL COASTAL OBSERVATIONS... STATION/POSITION TIME TEMP WIND PRES WAVE SWELL AIR SEA DIR/SP/G HT/PER HT/PER/DIR (UTC) (F) (DEG/KT/KT) (MB) (FT/S) (FT/S/D) UPR LAKE MARION NOT AVBL WINYAH BAY 0945 81 60/ 9 1013.0 LAKE MURRAY 1000 80 130/ 4/ 6 1014.2R ACE BASIN NERRS NOT AVBL FORT PULASKI 1000 80 85 350/ 4/ 5 1014.1R SAPELO ISLAND 1000 76 40/ 2 1013.0S $$ ANZ835-935-AMZ111-154-330-350-352-354-370-450-454-472-281200- ...C-MAN AND BUOY OBSERVATIONS... STATION/POSITION TIME TEMP WIND PRES WAVE SWELL AIR SEA DIR/SP/G HT/PER HT/PER/DIR (UTC) (F) (DEG/KT/KT) (MB) (FT/S) (FT/S/D) BUOY 41004 1050 82 84 30/ 14/ 16 1012.9S 3/ 7 2/ 7 BUOY 41008 0950 80 81 30/ 4/ 4 1013.2 2/ 7 2/120/ 7 FOLLY BEACH CMAN 1000 80 50/ 10/ 11 1014.0R CAPERS NEARSHORE 1008 81 70/ 12/ 16 1014.0R FRIPP NEARSHORE 1000 82 60/ 8/ 10 1013.2R STATION/POSITION TIME TEMP WIND PRES WAVE SWELL AIR SEA DIR/SP/G HT/PER HT/PER/DIR (UTC) (F) (DEG/KT/KT) (MB) (FT/S) (FT/S/D) 5E ST. MARYS GA 1021 81 N/A 3/ 6 FRYING PAN BUOY 1050 83 83 70/ 12/ 14 1014.5R 4/ 7 3/180/ 7 BUOY 41025 NOT AVBL CAPE LOOKOUT NC 1000 80 70/ 10/ 11 1015.1R BUOY 41002 1050 81 82 250/ 21/ 25 1013.5F 5/ 7 2/ 60/11 BUOY 41010 1020 84 84 220/ 12/ 14 1014.6R ST AUGUSTINE FL 1100 78 79 170/ 7/ 7 1014.5R $$

USA.gov is the U.S. government's official web portal to all federal, state and local government web resources and services.